Flag for Germany Weather past 2 weeks in Konstanz, Baden-Württemberg, Germany

Now
69 °F

Overcast.


Feels Like: 69 °F
Forecast: 59 / 73 °F
Wind: 5 mph from Southwest

Location: Konstanz

Current Time: Jul 8, 2015 at 9:22:05 AM

Latest Report: Jul 8, 2015 at 9:00 AM


Visibility: 13 mi

Pressure: 29.89 "Hg

Humidity: 74%

Dew point: 60 °F

Location of KonstanzLocation

Historic Weather in Konstanz — Graph

°F

Konstanz temperature yesterday

Maximum temperature yesterday: 93 °F (at 6:00 PM)
Minimum temperature yesterday: 70 °F (at 5:00 AM)
Average temperature yesterday: 82 °F

Past Weeks' High & Low Weather Summary

 TemperatureHumidityPressure
High95 °F (Jul 4, 5:00 PM)94% (Jun 24, 5:00 AM)30.23 "Hg (Jun 24, 5:00 AM)
Low49 °F (Jun 24, 5:00 AM)21% (Jun 26, 4:00 PM)29.68 "Hg (Jul 7, 8:00 PM)
Average73 °F61%30.08 "Hg
* Reported Jun 23 8:00 AM — Jul 8 8:00 AM, Konstanz, Weather by CustomWeather, © 2015

Note: Actual official high and low records may vary slightly from our data, if they occured in-between our weather recording intervals... More about our weather records

Advertising

Konstanz weather history for previous 24 hours

 ConditionsComfort  
Time TempWeatherWind HumidityBarometerVisibility
8:00 AM
Wed, Jul 8
68 °FSprinkles. Overcast.3 mph74%29.89 "Hg6 mi
7:00 AM70 °FOvercast.3 mph67%29.88 "Hg22 mi
5:00 AM70 °FOvercast.3 mph67%29.90 "Hg40 mi
4:00 AM71 °FOvercast.6 mph66%29.88 "Hg37 mi
3:00 AM71 °FPassing clouds.6 mph76%29.88 "Hg25 mi
2:00 AM71 °FOvercast.2 mph88%29.85 "Hg15 mi
1:00 AM72 °FPassing clouds.2 mph81%29.83 "Hg19 mi
11:00 PM
Tue, Jul 7
84 °FClear.5 mph45%29.75 "Hg25 mi
10:00 PM85 °FPassing clouds.6 mph42%29.73 "Hg25 mi
9:00 PM90 °FOvercast.6 mph39%29.70 "Hg16 mi
8:00 PM87 °FOvercast.2 mph55%29.68 "Hg11 mi
7:00 PM92 °FPassing clouds.2 mph41%29.70 "Hg11 mi
6:00 PM93 °FPassing clouds.3 mph44%29.73 "Hg11 mi
5:00 PM92 °FPassing clouds.3 mph45%29.75 "Hg11 mi
4:00 PM92 °FPassing clouds.2 mph49%29.79 "Hg11 mi
3:00 PM92 °FPassing clouds.2 mph44%29.81 "Hg10 mi
2:00 PM90 °FPassing clouds.2 mph50%29.84 "Hg10 mi
1:00 PM87 °FPassing clouds.2 mph60%29.86 "Hg14 mi
12:00 PM84 °FPassing clouds.2 mph64%29.88 "Hg12 mi
11:00 AM81 °FPassing clouds.2 mph66%29.91 "Hg11 mi
9:00 AM74 °FScattered clouds.2 mph78%29.96 "Hg7 mi
Weather by CustomWeather, © 2015

See weather overviewHow to use our weather pages